NWS Melbourne » East Central Florida Hourly Weather Roundup

MIARWRMLB 000
TTAA00 KMLB 160011
HOURLY WEATHER ROUNDUP AROUND FLORIDA
NATIONAL WEATHER SERVICE OFFICE MELBOURNE FL
800 PM EDT MON SEP 15 2014
  
CITY           SKY/WX    TMP DP  RH WIND       PRES   REMARKS
MELBOURNE      MOCLDY    84  74  71 E9        30.09S                  
FORT PIERCE    CLEAR     81  73  76 E6        30.10R                  
ORLANDO INTL   CLOUDY    82  73  74 E7        30.11R                  
DAYTONA BEACH  MOCLDY    77  76  96 CALM      30.11R                  
VERO BEACH     CLEAR     80  72  76 E7        30.10R                  
$$
...ELSEWHERE ACROSS CENTRAL FLORIDA...
  
CITY           SKY/WX    TMP DP  RH WIND       PRES   REMARKS
PATRICK AFB    PTCLDY    83  74  73 E8        30.10R                  
JFK SPACE CTR  LGT RAIN  77  73  88 E2        30.10S                  
CAPE CANAVERAL CLEAR     80  71  75 SE2       30.10R                  
TITUSVILLE     PTCLDY    81  73  78 CALM      30.11R                  
ORLANDO EXEC   MOCLDY    82  72  71 E6        30.11R                  
LEESBURG       MOCLDY    81  72  74 N5        30.11S                  
SANFORD        CLOUDY    80  71  74 SE5       30.11R                  
WINTER HAVEN   PTCLDY    83  71  67 NE8       30.12R                  
KISSIMMEE      MOCLDY    84  73  70 NE7       30.11R                  
OKEECHOBEE     CLEAR     79  72  78 MISG      30.10R                  
TAMPA          PTCLDY    84  72  67 NW6       30.10R                  
$$
...NORTHERN FLORIDA...
  
CITY           SKY/WX    TMP DP  RH WIND       PRES   REMARKS
DELAND         CLOUDY    77  73  88 NE3       30.12R                  
PALM COAST       N/A     75  74  95 CALM      30.12R                  
ST AUGUSTINE   CLOUDY    78  73  84 W5        30.12R                  
THE VILLAGES     N/A     81  75  83 MISG      30.01R HAZE             
OCALA          PTCLDY    77  73  88 CALM      30.11R                  
GAINESVILLE    MOCLDY    77  73  87 CALM      30.11R                  
JACKSONVILLE   TSTM      76  75  97 NW5       30.12R                  
TALLAHASSEE    CLOUDY    78  75  90 SW3       30.07F                  
$$
...ALONG THE SOUTHEAST COAST TO THE KEYS...
  
CITY           SKY/WX    TMP DP  RH WIND       PRES   REMARKS
WEST PALM BCH  PTCLDY    84  74  71 E7        30.09R                  
MIAMI          PTCLDY    84  72  67 E10       30.10R                  
KEY WEST       PTCLDY    85  74  69 SE8       30.09R                  
$$
...MARINE REPORTS...
  
STATION/POSITION TIME  TEMP    WIND        PRES    WAVE   SWELL
                       AIR SEA DIR/SP/G            HT/PER HT/PER/DIR
                 (UTC) (F)     (DEG/KT/KT) (MB)    (FT/S) (FT/S/D)
ST AUGUSTINE FP  0000   78     280/  3/  5 1020.5R
20NM E CAPE CANA 0000   84 85  120/  6/  8 1019.5F   1/ 9   2/ 70/ 9
120 E NEW SMYRNA 0000   83 85  180/  2/  2 1020.0R   2/ 8   2/100/ 8
TRIDENT PIER     0000   82 86  100/  3/  5 1018.8S
SEBASTIAN INLET  0000   83     120/  8     1020.0S
4NM E PORT CANAV 0000      85                N/A     1/ 8
6NM NE FPR INLET 0000      84                N/A     1/13
SETTLEMENT PT GB 0000   83      40/  6/  7 1019.9R
$$
  
 


USA.gov is the U.S. government's official web portal to all federal, state and local government web resources and services.